Kirksville, MO

7:39 PM CST on December 07, 2016 (GMT -0600)
Kirksville Regional

Weather History for KIRK - November, 2011

Change the Weather History Date:

Monday, November 28, 2011

  Actual Average Record
Temperature  
Mean Temperature 31 °F 35 °F  
Max Temperature 37 °F 44 °F 66 °F (1960)
Min Temperature 25 °F 26 °F 0 °F (1976)
Degree Days  
Heating Degree Days 34 30  
Month to date heating degree days 574 673  
Since 1 July heating degree days 1048 1162  
Cooling Degree Days 0 0  
Month to date cooling degree days 0 0  
Year to date cooling degree days 1197 939  
Moisture  
Dew Point 25 °F    
Average Humidity 78    
Maximum Humidity 92    
Minimum Humidity 64    
Precipitation  
Precipitation 0.00 in 0.08 in 1.01 in (1918)
Month to date precipitation 5.42 2.55  
Year to date precipitation 34.85 37.39  
Sea Level Pressure  
Sea Level Pressure 30.13 in    
Wind  
Wind Speed 7 mph (North)    
Max Wind Speed 13 mph    
Max Gust Speed 17 mph    
Visibility 10 miles    
Events      
T = Trace of Precipitation, MM = Missing Value Source: NWS Daily Summary

Daily Weather History Graph

Daily Weather History Graph

Search for Another Location

Airport or City:

Trip Planner

Search our weather history database for the weather conditions in past years. The results will help you decide how hot, cold, wet, or windy it might be!

Date:

Astronomy

Nov. 28, 2011 Rise Set
Actual Time 7:09 AM CST 4:46 PM CST
Civil Twilight 6:39 AM CST 5:16 PM CST
Nautical Twilight 6:06 AM CST 5:49 PM CST
Astronomical Twilight 5:33 AM CST 6:22 PM CST
Moon 10:19 AM CST (11/28) 8:33 PM CST (11/28)
Length of Visible Light 10h 36m
Length of Day
9h 36m
Waxing Crescent, 16% of the Moon is Illuminated
Nov 28
Waxing Crescent
Dec 2
First Quarter
Dec 10
Full
Dec 17
Last Quarter
Dec 24
New

Hourly Weather History & Observations

Time (CST) Temp. Windchill Dew Point Humidity Pressure Visibility Wind Dir Wind Speed Gust Speed Precip Events Conditions
12:55 AM 32.0 °F 25.6 °F 25.0 °F 75% 30.19 in 10.0 mi North 6.9 mph - N/A   Overcast
1:55 AM 32.0 °F 24.2 °F 24.1 °F 73% 30.20 in 10.0 mi North 9.2 mph - N/A   Overcast
2:55 AM 32.0 °F 24.8 °F 25.0 °F 75% 30.19 in 10.0 mi NNE 8.1 mph - N/A   Overcast
3:55 AM 32.0 °F 25.6 °F 25.0 °F 75% 30.20 in 10.0 mi North 6.9 mph - N/A   Overcast
4:55 AM 30.9 °F 26.2 °F 25.0 °F 79% 30.20 in 10.0 mi NNE 4.6 mph - N/A   Overcast
5:55 AM 30.9 °F 25.2 °F 25.0 °F 79% 30.20 in 10.0 mi NNE 5.8 mph - N/A   Overcast
6:55 AM 30.9 °F 25.2 °F 24.1 °F 76% 30.20 in 10.0 mi NE 5.8 mph - N/A   Overcast
7:55 AM 30.9 °F 25.2 °F 24.1 °F 76% 30.20 in 10.0 mi NE 5.8 mph - N/A   Overcast
8:55 AM 32.0 °F 27.5 °F 25.0 °F 75% 30.19 in 10.0 mi NE 4.6 mph - N/A   Overcast
9:55 AM 32.0 °F 25.6 °F 25.0 °F 75% 30.19 in 10.0 mi NNE 6.9 mph - N/A   Overcast
10:55 AM 33.8 °F 28.6 °F 24.8 °F 70% 30.14 in 10.0 mi NNE 5.8 mph - N/A   Overcast
11:55 AM 33.1 °F 28.7 °F 25.0 °F 72% 30.16 in 10.0 mi North 4.6 mph - N/A   Overcast
12:55 PM 34.0 °F 28.0 °F 26.1 °F 73% 30.13 in 10.0 mi NNW 6.9 mph - N/A   Overcast
1:55 PM 35.1 °F 27.9 °F 26.1 °F 70% 30.10 in 10.0 mi North 9.2 mph - N/A   Overcast
2:53 PM 35.6 °F 29.9 °F 26.6 °F 70% 30.05 in 10.0 mi NNW 6.9 mph - N/A   Scattered Clouds
2:55 PM 36.0 °F 30.3 °F 26.1 °F 67% 30.08 in 10.0 mi North 6.9 mph - N/A   Scattered Clouds
3:55 PM 35.1 °F 27.9 °F 25.0 °F 67% 30.08 in 10.0 mi North 9.2 mph - N/A   Clear
4:55 PM 30.0 °F 23.2 °F 24.1 °F 79% 30.09 in 10.0 mi North 6.9 mph - N/A   Clear
5:55 PM 28.9 °F 21.1 °F 25.0 °F 85% 30.09 in 10.0 mi NNE 8.1 mph - N/A   Clear
6:55 PM 28.0 °F 20.0 °F 24.1 °F 85% 30.08 in 10.0 mi North 8.1 mph - N/A   Clear
7:55 PM 28.4 °F 19.7 °F 24.8 °F 86% 30.04 in 8.0 mi North 9.2 mph - N/A   Clear
8:55 PM 26.1 °F 18.4 °F 24.1 °F 92% 30.08 in 9.0 mi NNE 6.9 mph - N/A   Clear
9:55 PM 28.0 °F 18.1 °F 25.0 °F 88% 30.08 in 10.0 mi North 11.5 mph - N/A   Clear
10:55 PM 26.6 °F 17.5 °F 24.8 °F 93% 30.02 in 10.0 mi North 9.2 mph - N/A   Clear
11:55 PM 25.0 °F 17.1 °F 23.0 °F 92% 30.05 in 8.0 mi North 6.9 mph - N/A   Clear